{"data":{"norad_id":63192,"epoch":"2026-05-25T04:43:38.811072Z","epoch_age_seconds":61092,"freshness":"FRESH","line1":"1 63192U 25048K   26145.19697698  .00160591  00000+0  12257-2 0  9993","line2":"2 63192  42.9988 218.7438 0000907 246.0375 114.0398 15.70942326 70551","mean_motion":15.70942326,"eccentricity":9.07e-5,"inclination_deg":42.9988,"raan_deg":218.7438,"arg_perigee_deg":246.0375,"mean_anomaly_deg":114.0398,"bstar":0.0012257,"rev_number":7055,"period_min":91.664727352951,"perigee_km":355.59180598263,"apogee_km":356.81341518799,"semimajor_km":6734.3396105853,"source":"CELESTRAK","updated_at":"2026-05-25T13:38:19.920685Z"}}